Regional Weather Roundup
Issued by NWS

Home | Current Version | Previous Version | Graphics & Text | Print | Product List | Glossary On
Versions: 1 2 3 4 5 6 7 8 9 10 11 12 13 14 15 16 17 18 19 20 21 22 23 24 25 26 27 28 29 30 31 32 33 34 35 36 37 38 39 40 41 42 43 44 45 46 47 48 49 50
000
ASUS43 KOAX 260710
RWRNE

WEATHER ROUNDUP FOR NEBRASKA
NATIONAL WEATHER SERVICE OMAHA NE
200 AM CDT SAT JUL 26 2014

NOTES: SATELLITE DATA IS BEING USED TO AUGMENT CLOUD COVER ABOVE
       12000 FEET.
       "FAIR" INDICATES FEW OR NO CLOUDS BELOW 12,000 FEET WITH NO
       SIGNIFICANT WEATHER AND/OR OBSTRUCTIONS TO VISIBILITY.

  * THESE STATIONS DO NOT REPORT WEATHER SUCH AS RAIN...SNOW OR FOG.

NEZ001>004-019>022-054>056-260800-
NEBRASKA PANHANDLE

CITY           SKY/WX    TMP DP  RH WIND       PRES   REMARKS
SCOTTSBLUFF    PTCLDY    66  59  78 E8        29.93S
ALLIANCE       PTCLDY    65  59  81 S8        29.91F
CHADRON        CLEAR     76  54  46 NW7       29.83R
KIMBALL        PTCLDY    65  56  74 S8        30.02R
SIDNEY         PTCLDY    65  55  70 SW10      29.99F
$$

NEZ057>060-069>072-079>082-260800-
SOUTHWEST NEBRASKA

CITY           SKY/WX    TMP DP  RH WIND       PRES   REMARKS
NORTH PLATTE   PTCLDY    75  67  76 SE8       29.85F
IMPERIAL       CLEAR     73  64  73 S9        29.92S
LEXINGTON      MOCLDY    72  69  89 S5        29.85S
MCCOOK         MOCLDY    71  68  90 SW8       29.91R
OGALLALA       CLEAR     71  63  75 CALM      29.89F
$$

NEZ005>010-023>029-035>040-094-260800-
NORTH CENTRAL NEBRASKA

CITY           SKY/WX    TMP DP  RH WIND       PRES   REMARKS
VALENTINE      PTCLDY    73  69  87 E10       29.87R
AINSWORTH      PTCLDY    70  69  97 E7        29.87S
BROKEN BOW     MOCLDY    70  67  90 E3        29.85R
O`NEILL        PTCLDY    72  67  85 NE9       29.85F
ORD            CLOUDY    73  70  90 S3        29.81S
THEDFORD       PTCLDY    71  67  88 CALM      29.86F
$$

NEZ041-046>049-061>064-073>077-083>087-260800-
SOUTH CENTRAL NEBRASKA

CITY           SKY/WX    TMP DP  RH WIND       PRES   REMARKS
GRAND ISLAND   MOCLDY    74  71  91 SE5       29.83F
AURORA         MOCLDY    74  74 100 NE3       29.83F FOG
HASTINGS       PTCLDY    74  69  85 E5        29.84F
HEBRON         PTCLDY    73  69  88 CALM      29.80F
HOLDREGE       PTCLDY    73  68  83 E3        29.85F
KEARNEY *      MOCLDY    72  66  83 E5        29.84F
YORK           PTCLDY    73  73 100 N6        29.83S FOG
$$

NEZ011>018-030>034-042>045-260800-
NORTHEAST NEBRASKA

CITY           SKY/WX    TMP DP  RH WIND       PRES   REMARKS
NORFOLK        TSTM      76  72  87 NE3       29.83F
ALBION         CLOUDY    75  72  88 E8        29.82F FOG
BLAIR          PTCLDY    74  72  91 NE7       29.82R
COLUMBUS *     MOCLDY    73  70  88 CALM      29.83S
FREMONT        MOCLDY    78  75  90 NE5       29.82S
WAYNE          PTCLDY    69  69  97 N5        29.83F FOG
$$

NEZ050>053-065>068-078-088>093-260800-
SOUTHEAST NEBRASKA

CITY           SKY/WX    TMP DP  RH WIND       PRES   REMARKS
LINCOLN        PTCLDY    76  73  91 N5        29.81R
OMAHA EPPLEY   MOCLDY    76  71  85 CALM      29.81R
BEATRICE       CLEAR     75  74  94 CALM      29.80S
FALLS CITY     PTCLDY    81  71  71 SW7       29.77S
NEBRASKA CITY    N/A     74  74 100 NE3       29.79S FOG
PLATTSMOUTH    PTCLDY    74  71  91 CALM      29.80S
$$

NEZ044-045-051>053-067-260800-
OMAHA AREA

CITY           SKY/WX    TMP DP  RH WIND       PRES   REMARKS
OMAHA EPPLEY   MOCLDY    76  71  85 CALM      29.81R
BLAIR          PTCLDY    74  72  91 NE7       29.82R
FREMONT        MOCLDY    78  75  90 NE5       29.82S
MILLARD        MOCLDY    78  74  86 CALM      29.81R
OFFUTT AFB     PTCLDY    74  74 100 NE6       29.80R
PLATTSMOUTH    PTCLDY    74  71  91 CALM      29.80S
WAHOO          FAIR      76  73  90 N3        29.81S FOG
$$



USA.gov is the U.S. government's official web portal to all federal, state and local government web resources and services.